Location: Izdebno
(52.6670°N, 16.2170°E)
Time: 09:55:52
(UTC+01:00)

Transit 2A - Pass Details

Date: 01 February 2023
Orbit: 591 x 964 km, 66.7° (Epoch: 21 March)

Event Time Altitude Azimuth Distance (km) Brightness Sun altitude
Rises 20:17:31 0° 270° (W) 3,140 10.2 -32.8°
Reaches altitude 10° 20:20:11 10° 284° (WNW) 2,285 9.3 -33.2°
Maximum altitude 20:24:31 25° 339° (NNW) 1,582 7.9 -33.8°
Enters shadow 20:24:53 25° 346° (NNW) 1,596 7.8 -33.9°
Drops below altitude 10° 20:29:13 10° 34° (NE) 2,501 - -34.5°
Sets 20:32:17 0° 47° (NE) 3,503 - -34.9°
